C/2022 N2 ( PanSTARRS )

Japanese version
Home page
Updated on September 27, 2024

---------------------------------------------------------------------

* Profile

Discovery Date July 4, 2022
Magnitude 20.6 mag
Discoverer Pan-STARRS 2 telescope (Haleakala)

* Pictures

* Orbital Elements

Epoch 2024 Oct. 17.0 TT = JDT 2460600.5
T 2025 July 31.69483 TT                                 Rudenko
q   3.8256346            (2000.0)            P               Q
z  -0.0009187      Peri.   75.37930     +0.81506998     -0.57603849
 +/-0.0000019      Node   319.74041     +0.48778328     +0.74001315
e   1.0035147      Incl.    5.50285     +0.31261542     +0.34721780
>From 774 observations 2022 June 2-2024 Aug. 31, mean residual 0".4.

* Finding Charts

* Magnitudes Graph

        m1 = 5.0 + 5 log d + 10.0 log r

---------------------------------------------------------------------

The orbital elements are published on M.P.E.C. 2024-R10.
The charts are made with StellaNavigator Ver.10 (AstroArts).
The magnitudes graphs are made with Comet for Windows.

---------------------------------------------------------------------

Copyright(C) Seiichi Yoshida (comet@aerith.net). All rights reserved.